This is the latest recevied weather packets stored in our database for station/object W4MSI. If no packets are shown the sender has not sent any weather packets the latest 10 day(s).
| Time | Temp. | Humidity | Pressure | Rain* | Wind** | Luminosity | Snow |
|---|---|---|---|---|---|---|---|
| 1778042652 | 17.78° C | 92% | 1005.2 hPa | 0 mm | - | 0 W/m² | - |
| 1778042349 | 17.78° C | 92% | 1005.5 hPa | 0 mm | - | 0 W/m² | - |
| 1778042046 | 17.22° C | 93% | 1005.6 hPa | 0 mm | - | 0 W/m² | - |
| 1778041744 | 17.22° C | 93% | 1005.6 hPa | 0 mm | - | 0 W/m² | - |
| 1778041443 | 17.22° C | 93% | 1005.7 hPa | 0 mm | - | 0 W/m² | - |
| 1778041141 | 17.22° C | 93% | 1005.6 hPa | 0 mm | - | 0 W/m² | - |
| 1778040838 | 17.22° C | 94% | 1005.8 hPa | 0 mm | - | 0 W/m² | - |
| 1778040536 | 17.22° C | 94% | 1005.7 hPa | 0 mm | - | 0 W/m² | - |
| 1778040233 | 17.22° C | 94% | 1005.8 hPa | 1.78 mm | - | 0 W/m² | - |
| 1778039928 | 16.67° C | 94% | 1005.9 hPa | 3.05 mm | - | 0 W/m² | - |
| 1778039626 | 17.22° C | 93% | 1005.6 hPa | 4.83 mm | - | 0 W/m² | - |
| 1778039323 | 16.67° C | 93% | 1005.7 hPa | 1.78 mm | - | 0 W/m² | - |
| 1778039020 | 16.67° C | 94% | 1005.9 hPa | 0 mm | - | 0 W/m² | - |
| 1778038717 | 16.67° C | 94% | 1006 hPa | 0 mm | - | 0 W/m² | - |
| 1778038414 | 16.67° C | 95% | 1006 hPa | 0 mm | - | 0 W/m² | - |
| 1778038111 | 16.67° C | 95% | 1006.2 hPa | 1.27 mm | - | 0 W/m² | - |
| 1778037808 | 16.11° C | 95% | 1006.1 hPa | 4.32 mm | - | 0 W/m² | - |
| 1778037505 | 16.11° C | 95% | 1006.2 hPa | 4.32 mm | - | 0 W/m² | - |
| 1778037202 | 16.11° C | 95% | 1006.3 hPa | 0 mm | - | 0 W/m² | - |
| 1778036900 | 16.11° C | 95% | 1006.3 hPa | 0 mm | - | 0 W/m² | - |
| 1778036598 | 16.11° C | 95% | 1006.3 hPa | 0 mm | - | 0 W/m² | - |
| 1778036294 | 16.11° C | 95% | 1006.3 hPa | 0 mm | - | 0 W/m² | - |
| 1778035990 | 16.11° C | 95% | 1006.5 hPa | 0 mm | - | 0 W/m² | - |
| 1778035688 | 16.11° C | 94% | 1006.3 hPa | 0 mm | - | 0 W/m² | - |
| 1778035384 | 16.11° C | 94% | 1006.2 hPa | 0 mm | - | 0 W/m² | - |
* Rain latest hour (hover to see other rain measurements)
** Current wind speed in m/s (hover to see current wind gust speed)